Theta_e
341 344 341 340 340 334 334 333 335 336 337 345 350 355 353 351 350 350 350 349 349 350 348 345 339 337 341 339 328 326 340 341 345 346 349 348 351 352 349 352 351 352 351 348
340 340 339 338 335 334 333 333 337 339 335 340 347 354 353 351 352 350 350 350 350 350 350 349 347 345 344 334 329 328 331 343 346 349 350 349 348 350 351 350 349 353 350 352
337 337 337 337 334 333 333 332 331 333 340 341 348 354 354 351 351 351 349 350 350 349 350 350 349 349 346 337 330 331 341 340 344 347 348 350 349 351 353 351 350 351 349 350
334 335 336 334 332 332 331 332 331 331 332 335 346 359 346 353 352 351 349 349 348 348 348 349 350 349 346 341 338 340 341 338 342 345 352 351 352 349 348 347 349 350 350 349
333 334 332 331 331 332 330 331 331 332 333 335 344 351 354 351 354 351 350 348 348 348 347 347 347 347 344 341 339 343 343 341 344 347 349 352 351 354 351 353 352 352 352 352
335 336 332 332 332 331 331 331 332 334 334 335 346 348 351 349 353 352 349 349 348 348 348 347 346 345 344 342 341 343 344 344 344 348 349 349 353 351 352 350 352 353 355 353
335 333 333 331 331 333 332 332 333 336 337 339 343 344 345 342 338 350 349 348 348 348 349 349 348 346 345 343 343 343 343 344 345 346 348 351 348 350 350 351 354 355 356 354
334 333 332 333 334 334 334 334 336 339 338 339 344 345 348 342 336 345 347 347 348 348 349 349 349 349 347 346 344 344 345 345 346 346 346 346 350 347 345 347 352 353 353 353
335 336 335 334 333 334 334 335 335 334 335 337 345 345 344 342 342 344 346 347 346 346 347 348 348 348 349 349 348 347 347 348 347 347 346 344 345 350 347 350 354 355 354 353
333 336 336 335 334 333 333 334 333 334 335 338 341 348 348 346 347 346 345 344 344 344 344 343 345 347 347 348 349 348 348 348 349 347 347 346 342 342 342 346 352 352 351 351
332 333 335 337 337 336 336 335 334 335 335 339 342 348 342 345 342 344 344 342 344 344 343 344 349 351 349 349 349 349 349 350 351 349 350 351 349 345 343 344 341 339 340 341
332 333 335 336 336 335 333 331 332 335 336 335 338 349 338 342 341 342 345 342 344 345 346 350 352 352 352 351 351 350 350 349 350 350 351 350 350 349 350 349 351 351 353 354
335 335 333 336 336 337 334 334 334 333 333 336 343 346 337 339 341 340 343 346 349 349 350 351 351 352 352 351 350 350 350 349 350 351 351 351 350 349 347 349 354 355 356 356
333 334 332 334 337 337 336 334 333 332 333 334 342 346 340 339 341 341 343 349 350 350 350 351 353 354 353 353 352 352 352 352 352 353 353 352 352 353 353 352 353 355 355 356
333 332 332 333 334 333 333 332 332 333 333 334 337 342 343 342 343 344 349 350 350 351 351 352 352 354 353 353 353 353 355 354 357 357 355 355 356 357 357 357 357 356 357 357
333 333 333 333 334 333 332 332 332 331 332 332 333 333 336 345 345 348 349 349 350 350 350 351 353 354 356 357 356 356 356 357 352 353 357 359 359 356 355 356 355 355 355 356
334 332 334 334 334 334 334 334 334 333 332 332 331 332 337 343 344 345 343 348 349 351 353 353 353 355 354 356 355 354 355 356 357 355 354 353 353 354 354 354 354 354 355 355
334 335 334 335 335 336 335 335 333 333 333 332 331 333 335 337 343 343 343 341 352 352 353 354 353 353 351 349 350 350 349 350 349 348 346 343 344 346 347 348 349 350 349 351
333 334 334 336 336 335 335 334 333 333 333 333 331 331 334 338 344 344 345 352 353 353 353 350 346 345 345 345 344 342 339 337 334 333 329 327 325 326 326 330 341 346 346 347
333 334 335 336 335 335 335 334 333 333 333 333 333 333 335 342 347 351 351 352 352 351 347 345 344 343 341 340 340 339 338 334 327 324 323 322 321 321 321 321 322 326 328 338
338 340 337 336 336 335 334 333 333 333 336 337 334 335 338 343 343 350 351 351 347 343 342 342 340 339 338 337 337 337 337 330 323 322 322 324 324 321 325 326 323 323 322 323
340 343 338 338 342 340 334 333 334 333 335 336 336 336 340 347 349 350 346 341 340 341 340 339 338 337 336 335 336 336 335 325 323 322 328 330 329 327 331 325 324 326 328 329
336 337 340 340 338 338 334 333 334 333 332 338 336 338 340 345 345 342 340 340 341 338 337 338 338 338 336 329 326 330 328 326 321 328 332 332 332 332 330 330 329 331 331 330
335 335 337 341 338 336 335 334 334 333 334 336 337 336 340 342 342 342 339 340 339 338 337 337 338 338 337 334 333 332 328 322 328 333 333 333 332 331 330 329 330 330 329 329
337 338 341 339 340 335 334 335 334 334 333 334 336 336 339 340 341 340 339 339 338 337 336 335 336 336 335 333 331 332 331 330 331 331 331 331 330 329 329 330 329 329 328 327
335 337 337 339 338 339 337 335 335 334 333 334 334 336 337 338 339 338 338 339 338 336 337 336 335 335 333 333 334 333 330 330 323 329 331 329 327 328 328 328 327 328 328 326
Wind_Speed
18 14 12 23 21 10 7 7 12 11 5 6 11 14 11 13 13 15 17 19 19 19 21 23 27 27 26 25 27 31 24 21 16 14 13 11 11 8 9 10 8 6 3 4
15 12 19 19 7 10 8 9 14 11 6 3 9 16 11 9 12 14 17 18 20 20 22 26 29 27 25 31 34 34 26 22 21 16 18 11 8 11 9 8 8 8 10 9
18 10 18 15 11 10 13 10 9 2 13 12 15 13 12 9 9 13 16 19 21 21 24 24 26 29 26 31 32 29 26 22 21 21 11 11 12 10 11 11 12 13 13 14
13 14 6 9 11 7 12 6 7 10 12 11 19 7 3 13 10 13 18 19 20 20 22 23 26 27 27 30 28 28 31 25 18 18 19 16 11 14 14 11 12 14 12 12
16 10 10 8 10 9 12 9 9 12 12 18 25 11 5 4 10 14 18 21 22 23 23 23 23 24 25 28 29 33 26 23 19 20 23 17 18 15 9 14 14 15 14 16
12 18 5 9 7 9 11 11 15 17 13 12 21 14 9 8 19 18 21 24 25 25 24 25 24 26 27 29 32 30 28 29 24 23 23 22 19 19 17 20 19 17 18 15
17 15 13 2 13 15 12 15 9 6 3 10 18 10 8 20 14 19 22 26 24 27 26 26 29 29 30 33 34 32 33 32 30 28 26 26 25 22 20 20 13 15 17 15
14 11 9 11 11 11 9 10 4 2 9 8 13 7 5 11 17 37 32 31 26 24 27 24 26 30 33 33 33 34 33 36 33 29 27 27 28 26 27 24 22 20 17 15
8 5 4 4 6 9 13 8 12 14 19 9 9 11 16 12 32 45 32 36 29 21 26 25 24 25 29 35 34 34 32 31 35 31 27 25 29 29 25 22 18 22 19 16
11 8 10 11 10 12 12 12 12 7 4 9 8 6 10 22 13 13 14 19 17 14 12 10 10 25 24 25 30 32 31 32 30 29 27 25 26 29 28 27 27 26 22 19
13 14 6 13 4 12 3 9 10 11 10 4 4 7 9 9 20 17 6 16 17 16 12 8 6 6 8 8 19 26 23 23 22 21 22 22 22 25 27 27 27 28 27 26
12 13 7 10 11 3 9 10 13 10 7 10 6 4 5 16 13 23 31 16 16 15 14 12 11 11 11 9 11 15 18 20 19 21 22 25 24 24 23 22 20 20 22 21
10 7 8 10 13 15 8 3 9 13 12 4 5 3 10 4 23 22 33 11 16 16 16 14 14 14 14 12 12 11 12 12 14 15 17 17 19 22 22 25 19 20 20 23
7 15 16 12 14 10 8 2 5 10 11 11 12 11 11 14 19 36 33 16 17 16 17 17 15 15 14 13 13 13 11 7 5 8 12 15 17 16 17 17 16 18 23 22
7 16 17 18 7 5 7 12 11 11 13 13 10 17 23 26 24 29 34 25 20 19 17 17 17 15 13 12 11 8 8 9 8 7 4 6 12 11 15 17 17 13 15 17
13 15 14 15 12 10 13 7 10 12 13 12 12 11 6 38 35 27 28 27 22 18 18 20 17 15 13 10 9 6 6 3 5 4 6 8 8 10 12 16 16 17 20 21
9 12 14 12 8 10 10 9 10 11 11 12 11 11 10 13 12 13 8 23 24 22 17 14 14 14 12 10 8 7 7 6 6 5 4 3 3 2 3 10 13 13 16 17
14 11 9 10 11 10 9 10 10 11 12 13 15 12 7 7 12 6 5 11 27 25 20 17 15 15 14 13 11 8 5 6 4 4 2 1 2 3 4 6 8 9 11 11
18 14 11 8 11 13 13 9 13 6 11 7 10 11 5 12 13 9 11 23 25 24 19 16 15 13 12 10 9 9 6 5 3 2 4 6 7 8 8 8 9 9 10 12
19 17 12 11 15 17 13 13 8 8 10 13 12 3 5 15 7 10 15 18 19 19 20 17 13 12 12 10 8 6 4 2 3 6 9 11 12 13 13 13 14 15 15 15
15 14 15 13 10 14 12 17 5 2 6 11 5 8 13 9 12 28 24 22 23 21 18 17 16 14 12 9 7 5 1 5 9 10 11 11 13 11 9 13 16 18 18 18
18 13 12 11 14 20 21 15 15 3 3 6 2 3 10 19 26 29 28 25 22 22 20 16 15 12 9 8 6 2 4 9 10 9 8 9 9 8 7 12 11 11 11 15
18 17 11 12 10 11 24 19 11 3 11 6 8 6 14 22 26 28 26 26 23 20 18 16 14 10 6 3 1 2 7 9 8 6 7 7 9 10 15 14 12 14 12 12
19 20 16 14 13 12 5 5 1 3 11 6 3 8 19 25 28 25 23 22 22 20 19 15 12 11 7 2 2 3 8 8 6 6 7 8 9 7 9 10 9 9 9 11
15 15 13 12 12 16 17 7 11 15 12 8 12 9 20 23 31 29 25 22 20 18 16 14 13 9 6 2 1 2 5 5 3 4 7 6 4 7 8 7 9 10 9 12
18 13 10 5 21 14 11 9 13 12 9 12 14 17 10 25 33 32 28 22 20 18 17 14 12 10 6 4 2 3 2 5 4 6 5 8 8 7 7 8 6 8 9 14
Wind_Direction
290 250 73 272 271 312 301 286 116 120 161 205 134 132 147 148 145 153 164 173 177 185 191 188 190 196 198 197 189 199 195 217 207 197 206 219 219 230 241 250 280 318 351 239
262 258 158 234 292 276 281 277 118 128 156 198 136 133 143 167 160 170 170 178 181 180 190 191 191 195 201 200 196 203 202 222 206 201 204 217 220 231 241 243 251 222 250 251
269 43 300 294 281 294 281 353 36 351 167 195 113 115 143 168 192 175 181 184 186 179 180 187 192 196 200 203 201 204 212 213 207 211 213 209 211 234 250 230 240 250 255 247
272 286 216 282 278 309 300 41 306 254 240 229 168 153 256 160 208 188 188 189 183 178 176 183 188 192 197 204 207 201 220 209 215 205 205 218 230 232 230 224 236 246 252 273
260 231 240 280 311 347 293 319 268 259 262 264 194 117 334 157 210 217 208 188 185 185 183 182 188 191 194 198 202 206 222 224 224 227 212 218 221 238 258 244 246 238 244 257
254 273 303 288 322 254 258 280 260 252 235 243 80 95 224 227 202 208 211 191 188 182 188 186 189 193 196 197 202 205 214 215 231 219 232 223 220 232 233 239 227 235 255 245
217 228 222 213 250 241 224 237 261 257 336 311 136 131 184 223 219 213 194 192 186 182 188 194 190 195 198 201 202 207 211 222 229 235 235 238 228 230 234 248 265 254 263 300
237 196 183 187 256 325 302 311 201 242 294 232 82 145 173 138 281 233 193 181 176 184 184 197 201 198 201 203 209 210 215 219 225 235 248 240 242 233 238 242 245 254 263 266
41 186 208 224 293 291 304 297 334 290 222 218 111 91 2 337 212 244 180 170 156 177 185 187 197 207 209 205 206 209 213 222 225 235 244 249 234 240 240 248 254 270 275 277
286 201 248 170 210 228 261 313 301 299 340 333 104 80 143 255 309 126 143 107 114 142 148 165 185 202 201 208 207 204 209 215 227 231 240 248 240 239 243 238 239 245 248 254
302 295 189 254 350 332 271 275 304 337 300 221 196 94 161 105 266 329 24 129 132 130 123 113 100 100 139 190 196 192 195 204 220 229 226 241 243 240 245 251 258 259 260 257
246 297 304 226 211 309 285 271 284 279 326 322 344 126 244 234 58 85 278 258 144 128 120 120 113 110 115 139 154 180 193 206 216 225 232 228 235 240 243 257 263 268 270 271
317 278 271 340 5 344 286 317 331 301 304 283 5 291 297 55 107 203 242 174 125 126 127 129 122 119 120 122 140 163 183 206 216 227 231 244 235 248 247 231 246 259 260 263
309 283 297 285 167 200 306 276 313 314 301 9 83 118 214 195 174 210 236 175 144 140 150 139 132 124 127 128 136 136 144 159 196 200 222 237 226 240 240 253 253 249 248 253
253 265 277 282 337 353 301 309 319 310 315 320 140 157 187 201 204 241 182 151 156 151 145 151 142 136 133 134 138 140 139 183 155 167 188 215 213 204 217 232 234 233 238 249
248 259 274 294 300 300 288 276 285 289 295 295 302 317 48 162 190 147 151 149 149 161 153 141 135 141 136 134 132 138 138 98 199 193 197 212 220 237 256 251 250 249 250 249
207 251 256 264 277 311 296 247 251 269 260 271 283 295 88 123 144 154 159 153 156 140 128 137 145 138 134 132 125 113 104 105 115 132 176 181 191 211 279 262 255 259 254 255
291 242 255 284 300 269 274 307 342 324 315 316 310 312 150 80 105 102 163 195 131 131 141 137 131 128 124 125 120 131 132 144 161 169 203 274 275 272 271 283 303 306 290 279
266 274 275 252 244 256 267 260 277 293 327 250 280 272 116 120 110 95 112 119 123 126 130 138 129 122 117 118 134 148 127 113 99 25 336 325 313 303 297 283 270 261 274 289
249 253 260 256 257 272 292 312 29 8 294 279 258 201 153 131 157 132 130 129 134 141 144 133 131 126 124 122 123 116 93 55 357 333 316 306 301 298 297 294 290 285 275 270
246 230 246 248 257 267 259 276 237 299 320 354 197 143 160 161 204 149 149 147 147 143 140 140 140 132 128 131 130 116 62 319 324 317 312 309 308 310 322 299 295 292 291 286
257 261 225 240 249 260 274 260 242 253 281 256 269 221 138 108 126 138 145 144 143 138 135 137 130 125 129 139 138 120 289 317 319 321 333 324 329 335 324 327 336 342 358 347
256 259 262 228 247 226 242 257 261 247 249 337 156 183 146 135 140 143 146 148 145 147 149 147 143 140 128 117 72 355 324 331 336 358 336 342 342 359 342 349 5 355 341 335
263 264 264 265 245 240 207 280 199 254 326 208 249 206 165 150 150 148 153 155 155 156 154 155 153 147 142 91 8 351 315 333 358 353 354 351 353 343 337 346 344 329 330 322
295 313 295 261 273 259 270 293 211 211 244 258 243 273 184 170 159 158 160 159 156 154 150 150 156 154 147 150 347 340 343 330 353 10 21 344 339 337 348 342 339 330 319 340
286 289 299 344 353 320 252 249 272 232 241 247 234 236 241 173 158 157 155 158 156 153 153 149 152 144 137 121 114 286 352 300 332 49 354 342 359 1 352 350 328 347 350 1